LTANLTAF

Guest
Details From LTAN - KONYA
To LTAF - ADANA
Flight Number -
Tags generated
Created
Modified
Stats Distance 144 nm / 266 km
Max Altitude 2,800 ft / 853 m
Waypoints 3
Social Downloads 1
Likes 0
Share VATSIM

Download

Looking for another format? Having issues loading an existing format? Contact us
Advertisement - Login to hide

Notes

Basic altitude profile: - Ascent Rate: 5ft/min - Ascent Speed: 75kts - Cruise Altitude: 8000ft - Cruise Speed: 105kts - Descent Rate: 5ft/min - Descent Speed: 70kts Options: - Use NATs: yes - Use PACOTS: yes - Use low airways: no - Use high airways: no

Route

LTAN 3700N03500E LTAF

ID Type Via Altitude Latitude Longitude Leg Dist Tot Dist Heading (true) Name
O LTAN APT - 0 ft / 0 m 37.97900˚ 32.56185˚ - 0 nm - KONYA
3700N03500E LATLON - 2,800 ft / 853 m 37.00000˚ 35.00000˚ 130 nm 130 nm 116° / 118° -
O LTAF APT - 0 ft / 0 m 36.98214˚ 35.28039˚ 13 nm 143 nm 94° / 95° ADANA

Altitude Profile

Advertisement - Login to hide

LTAN

Details ICAO LTAN (KYA)
Name KONYA
Region Turkey
Timezone Europe/Istanbul (UTC+3.0)
Stats Elevation 3,381 ft / 1,031 m (AMSL)
Location 37.979000° 32.561847°
Runways 1
Magnetic Variation 5.345° E

METAR

LTAN 141850Z 03004KT 8000 NSC 01/M00 Q1017 NOSIG

Decode

TAF

Not found

Departure Runways

ID Width Length Bearing (true) Bearing (mag) Surface Threshold Offset Overrun Length
01 148 ft / 45 m 11,008 ft / 3,355 m 16.74° 11.40° Asphalt 0 ft / 0 m 328 ft / 100 m
19 148 ft / 45 m 11,008 ft / 3,355 m 196.75° 191.41° Asphalt 0 ft / 0 m 328 ft / 100 m

LTAF

Details ICAO LTAF (ADA)
Name ADANA
Region Turkey
Timezone Europe/Istanbul (UTC+3.0)
Stats Elevation 65 ft / 20 m (AMSL)
Location 36.982142° 35.280394°
Runways 1
Magnetic Variation 5.353° E

METAR

LTAF 141850Z VRB02KT 3400 1600S BR NSC 12/09 Q1017 BECMG 9999 NSW

Decode

TAF

Not found

Destination Runways

ID Width Length Bearing (true) Bearing (mag) Surface Threshold Offset Overrun Length
05 148 ft / 45 m 8,979 ft / 2,737 m 53.45° 48.10° Asphalt 0 ft / 0 m 197 ft / 60 m
23 148 ft / 45 m 8,979 ft / 2,737 m 233.47° 228.12° Asphalt 0 ft / 0 m 197 ft / 60 m

Approach Navaids

Runway Type Ident Frequency Range Bearing (true) Bearing (mag) Slope Elevation
05 Localiser IADA 108.70 MHz 18 nm / 33 km 53.01° 47.66° - 65 ft / 20 m (AMSL)
05 Glidescope IADA 108.70 MHz 10 nm / 19 km 53.46° 48.11° 3.00° 65 ft / 20 m (AMSL)

Popular Alternatives